DW1549 Fauske NO current weather conditions

sailwx.info

Wind from 107 at 3 knots gusting 5

Air temperature 5.0° C
Dewpoint -5.9° C

Last reported at 2017-Oct-22 08:29 UTC.
Time now 2017-Oct-22 10:14 UTC

Location: N 67°16' E 015°25'.
View on Google Maps.

See reports from other nearby stations

  
Tides and Currents Weather Stations Pressure Air Temp Water Temp Dewpoint Dewpoint Depression Visibility Wind Speed Wind Dir Waves Ship Positions
date/time (UTC)wind fromknots sea level pressurealtimeterstation pressurevisibilityair tempwater tempwave heightnotes
2017-Oct-22 08:29 107 3 gusting 5 5.0
2017-Oct-22 08:09 097 1 gusting 4 4.4
2017-Oct-22 07:49 095 3.9
2017-Oct-22 07:39 095 2 gusting 6 3.3
2017-Oct-22 07:29 096 1 gusting 6 2.8
2017-Oct-22 07:19 096 2.8
2017-Oct-22 07:10 097 0 gusting 6 2.8
2017-Oct-22 06:59 097 2 gusting 10 2.2
2017-Oct-22 06:50 046 0 gusting 4 2.2
2017-Oct-22 06:40 045 0 gusting 5 1.7
2017-Oct-22 06:00 035 1.7
2017-Oct-22 05:50 035 1.7
2017-Oct-22 05:40 035 1.7
2017-Oct-22 05:30 027 1.7
2017-Oct-22 05:20 016 1.7
2017-Oct-22 05:10 016 1.7
2017-Oct-22 04:40 016 1.1
2017-Oct-22 04:20 016 0 gusting 4 0.6
2017-Oct-22 04:10 006 0.6
2017-Oct-22 04:00 006 0.6
2017-Oct-22 03:40 006 1.7
2017-Oct-22 03:30 006 1.7
2017-Oct-22 03:10 006 0 gusting 4 1.7
2017-Oct-22 02:50 353 1.7
2017-Oct-22 02:40 345 1.1
2017-Oct-22 02:09 340 1.1
2017-Oct-22 01:49 313 1.1
2017-Oct-22 01:29 301 0.6
2017-Oct-22 01:19 301 0.6
2017-Oct-22 01:09 301 0.6
2017-Oct-22 00:59 301 0.6
2017-Oct-22 00:49 297 0.6
2017-Oct-22 00:39 297 0 gusting 1 0.6
2017-Oct-22 00:20 297 1.1
2017-Oct-22 00:10 296 1.7
2017-Oct-22 00:00 246 1.7
2017-Oct-21 23:50 246 1.1
2017-Oct-21 23:30 245 0.6
2017-Oct-21 23:20 241 0.6
2017-Oct-21 23:10 239 0.6
2017-Oct-21 23:00 236 1.1
2017-Oct-21 22:50 236 1.1
2017-Oct-21 22:40 238 1.1
2017-Oct-21 22:30 239 1.1
2017-Oct-21 22:20 239 0 gusting 1 1.1
2017-Oct-21 22:10 220 1.7
2017-Oct-21 22:00 220 1.1
2017-Oct-21 21:50 219 1.1
2017-Oct-21 21:40 219 1.7
2017-Oct-21 21:20 218 1.7
2017-Oct-21 21:10 226 1 gusting 6 1.1
2017-Oct-21 20:50 332 1.1
2017-Oct-21 20:40 332 1.7
2017-Oct-21 20:30 332 1.7
2017-Oct-21 20:20 307 0 gusting 2 1.1
2017-Oct-21 19:50 313 2.2
2017-Oct-21 19:20 115 0.6
2017-Oct-21 19:00 115 1.1
2017-Oct-21 18:50 115 0.6
2017-Oct-21 18:40 114 0.6
2017-Oct-21 18:30 115 1.1
2017-Oct-21 18:20 115 1.1
2017-Oct-21 18:10 115 1.7
2017-Oct-21 18:00 116 1.7
2017-Oct-21 17:40 116 1.1
2017-Oct-21 17:20 116 1.1
2017-Oct-21 17:00 116 1.7
2017-Oct-21 16:50 116 1 gusting 4 1.7
2017-Oct-21 16:40 132 1.7
2017-Oct-21 16:29 132 0 gusting 2 1.7
2017-Oct-21 16:19 132 0 gusting 6 1.7
2017-Oct-21 15:45 243 1.7
2017-Oct-21 15:26 243 2.2
2017-Oct-21 15:15 243 2.8
2017-Oct-21 15:06 243 3.3
2017-Oct-21 14:55 242 3.3
2017-Oct-21 14:45 238 3.3
2017-Oct-21 14:35 238 3.3
2017-Oct-21 14:15 238 3.9
2017-Oct-21 13:55 238 3.9
2017-Oct-21 13:35 238 4.4
2017-Oct-21 13:25 238 4.4
2017-Oct-21 13:15 238 4.4
2017-Oct-21 13:05 238 4.4
2017-Oct-21 12:55 238 4.4
2017-Oct-21 12:25 236 0 gusting 2 4.4
2017-Oct-21 12:15 234 4.4
2017-Oct-21 12:05 231 4.4
2017-Oct-21 11:45 184 5.0
2017-Oct-21 11:25 184 5.6
2017-Oct-21 11:15 184 5.6
2017-Oct-21 10:55 184 5.0
2017-Oct-21 10:35 184 5.0
2017-Oct-21 10:25 184 4.4
2017-Oct-21 10:15 184 3.9
2017-Oct-21 10:05 180 3.9
2017-Oct-21 09:55 180 3.9
2017-Oct-21 09:25 180 3.9
2017-Oct-21 09:05 126 3.3
2017-Oct-21 08:55 126 3.3
2017-Oct-21 08:45 126 0 gusting 2 3.3
2017-Oct-21 08:26 125 2.8
2017-Oct-21 08:15 125 2.2
2017-Oct-21 08:05 126 1.7
2017-Oct-21 07:55 125 1.1
2017-Oct-21 07:45 125 0.6
2017-Oct-21 07:35 125 -0.0
2017-Oct-21 07:26 125 -0.6
2017-Oct-21 07:16 125 -1.1
2017-Oct-21 07:06 125 -1.1
2017-Oct-21 06:56 125 -1.7
2017-Oct-21 06:46 125 -1.7
2017-Oct-21 06:36 125 -1.7
2017-Oct-21 06:25 125 -1.7
2017-Oct-21 06:05 125 -1.7
2017-Oct-21 05:55 125 -1.1
2017-Oct-21 05:45 126 -1.1
2017-Oct-21 05:25 125 -1.1
2017-Oct-21 05:15 125 -1.1
2017-Oct-21 05:05 125 0 gusting 2 -1.1
2017-Oct-21 04:55 136 0 gusting 2 -1.7
2017-Oct-21 04:35 174 -1.7
2017-Oct-21 04:26 174 -1.1
2017-Oct-21 04:06 174 -1.1
2017-Oct-21 03:56 174 -1.1
2017-Oct-21 03:46 175 -1.1
2017-Oct-21 03:36 175 -1.1
2017-Oct-21 03:25 175 -1.1
2017-Oct-21 03:15 175 -1.1
2017-Oct-21 03:05 176 -1.1
2017-Oct-21 02:45 176 -1.1
2017-Oct-21 02:05 176 -1.7
2017-Oct-21 01:55 176 -1.7
2017-Oct-21 01:35 176 -1.7
2017-Oct-21 01:25 176 -1.1
2017-Oct-21 01:15 176 -1.1
2017-Oct-21 00:55 176 -1.1
2017-Oct-21 00:35 176 -0.6
2017-Oct-21 00:25 176 -0.6
2017-Oct-21 00:15 176 -0.6
2017-Oct-21 00:05 176 -0.6
2017-Oct-20 23:55 176 -0.6
2017-Oct-20 23:45 176 -0.0
2017-Oct-20 23:35 176 -0.0
2017-Oct-20 23:26 176 0.6
2017-Oct-20 23:06 151 0.6
2017-Oct-20 22:56 152 0.6
2017-Oct-20 22:46 152 1.1
2017-Oct-20 22:36 152 1.7
2017-Oct-20 22:26 151 0 gusting 6 2.2
2017-Oct-20 22:16 132 2 gusting 8 2.2
2017-Oct-20 22:06 144 0 gusting 8 2.2
2017-Oct-20 21:56 140 0 gusting 8 2.2
2017-Oct-20 21:36 147 1 gusting 8 2.8
2017-Oct-20 21:25 126 5 gusting 12 2.8
2017-Oct-20 21:15 130 2 gusting 7 2.8
2017-Oct-20 21:05 146 1 gusting 10 2.8
2017-Oct-20 20:55 128 6 gusting 11 2.8
2017-Oct-20 20:45 135 2 gusting 8 2.8
2017-Oct-20 20:35 142 5 gusting 11 2.8
2017-Oct-20 20:25 139 6 gusting 10 3.3
2017-Oct-20 20:15 164 7 gusting 12 3.3
2017-Oct-20 20:05 129 6 gusting 11 2.8
2017-Oct-20 19:55 127 6 gusting 12 2.8
2017-Oct-20 19:35 133 6 gusting 13 2.8
2017-Oct-20 19:25 123 4 gusting 12 2.8
2017-Oct-20 18:56 127 8 gusting 14 3.3
2017-Oct-20 18:45 124 7 gusting 13 3.3
2017-Oct-20 18:35 124 9 gusting 13 3.3
2017-Oct-20 18:26 128 6 gusting 10 2.8
2017-Oct-20 18:16 137 5 gusting 14 3.3
2017-Oct-20 18:06 122 10 gusting 13 3.3
2017-Oct-20 17:56 134 6 gusting 13 3.3
2017-Oct-20 17:46 132 8 gusting 13 3.3
2017-Oct-20 17:36 120 8 gusting 13 3.3
2017-Oct-20 17:26 127 8 gusting 14 3.3
2017-Oct-20 17:16 131 7 gusting 13 3.3
2017-Oct-20 17:06 137 7 gusting 14 3.3
2017-Oct-20 16:56 112 6 gusting 14 3.3
2017-Oct-20 16:46 136 6 gusting 13 3.3
2017-Oct-20 16:36 118 6 gusting 12 3.3
2017-Oct-20 16:15 117 4 gusting 10 2.8
2017-Oct-20 15:55 120 5 gusting 10 3.3
2017-Oct-20 15:45 126 6 gusting 10 3.3
2017-Oct-20 15:35 131 5 gusting 10 3.3
2017-Oct-20 15:26 132 5 gusting 10 3.3
2017-Oct-20 15:16 142 4 gusting 7 3.3
2017-Oct-20 15:06 137 3 gusting 8 3.9
2017-Oct-20 14:56 143 4 gusting 10 3.9
2017-Oct-20 14:46 147 4 gusting 7 3.9
2017-Oct-20 14:15 151 4 gusting 7 4.4
2017-Oct-20 13:26 126 7 gusting 13 5.0
2017-Oct-20 13:16 127 6 gusting 13 5.0
2017-Oct-20 12:56 120 7 gusting 13 5.0
2017-Oct-20 12:46 135 6 gusting 13 5.0
2017-Oct-20 12:25 131 6 gusting 13 5.0
2017-Oct-20 12:16 129 6 gusting 13 5.0
2017-Oct-20 12:06 122 6 gusting 13 5.0
2017-Oct-20 11:55 119 6 gusting 11 5.6
2017-Oct-20 11:46 136 7 gusting 11 5.6
2017-Oct-20 11:36 120 8 gusting 12 5.6
2017-Oct-20 11:25 085 1 gusting 6 5.6
2017-Oct-20 11:15 080 0 gusting 4 5.6
2017-Oct-20 11:05 080 5.0
2017-Oct-20 10:46 080 4.4
2017-Oct-20 10:35 080 4.4
2017-Oct-20 10:26 080 4.4
2017-Oct-20 10:15 080 4.4
2017-Oct-20 10:05 080 3.9